COSMOS 2069

Satellite information

Favourite Embed

Satellite Type and Status

PAYLOADIN ORBIT

Key statistics

Satellite COSMOS 2069 at a glance.

Uptime

13036

Days in orbit

Revolutions

≈ 12.5

Per day

Orbit

LEO

Low Earth Orbit

Inclination

74.0

Latest

Satellite identification and parameters

Extended collection of information and parameters for COSMOS 2069.

Object identification

Identified? True

Debris? False

Object name: COSMOS 2069

International designator: 1990-029F

Object number (NORAD): 20554

Object ID (CCSDS): 20554

Country: COMMONWEALTH OF INDEPENDENT STATES (CIS)

Current information (Y/N): Y

RCS size: MEDIUM

Orbital parameters

Period: 114.783 minutes

Inclination: 73.9831 deg

SMA: 7823.707 km

Apoapsis: 1462.995 km

Periapsis: 1428.148 km

RAAN: 14.5727 deg

Eccentricy: 0.00222702

Argument of periapsis: 203.3663 deg

Mean anomaly: 227.2496 deg

Mean motion: 12.54538236 rev/day

Mean motion (dot): -0.00000015 rev/day2

B* drag term: 0.00000861733 1/REarth

Two-line elements (TLE)

Creation date: Dec. 12, 2025, 10:14 a.m.

Reference frame: TEME

Reference center: EARTH

Epoch: Dec. 12, 2025, 5:28 a.m. UTC

TLE line 0: 0 COSMOS 2069

TLE line 1: 1 20554U 90029F 25346.22839152 -.00000015 00000-0 86173-5 0 9995

TLE line 2: 2 20554 73.9831 14.5727 0022270 203.3663 227.2496 12.54538236634241

Live tracking on map

Real-time ground track for satellite COSMOS 2069.

In-orbit conjunctions

A list of the most updated potential collisions computed for object COSMOS 2069.

Target Orbit TCA Probability of collision Miss distance Type
FENGYUN 1C DEB SSO 2024-11-29 17:37:07 0.0001665182 253.0 (m) DEBRIS

Associated space launch

Military communications satellites

COSMOS 2069 was lifted into orbit during the mission ‘Kosmos-3M | Strela-1M 345-352’, on board a Kosmos-3M space rocket.

The launch took place on April 6, 1990, 3:13 a.m. from 133/3 (133L).

For more information about the launch, click the button.

Launch to space Kosmos-3M | Strela-1M 345-352
Kosmos-3M | Strela-1M 345-352

Agency: N/A

Status: Launch Successful

Launch date: April 6, 1990, 3:13 a.m. UTC

Rocket: Kosmos-3M

Launch pad: 133/3 (133L)

Location: Plesetsk Cosmodrome, Russian Federation

...

Latest news about this satellite

There are no fresh news available about this satellite. Check back as we update our databases every day.


Newsletter sign-up

Weekly statistics, charts and insights to help you stay on top of the space industry.